FW0460 Weather Reports


time (UTC)temp
C
wind
direction
speed
KPH
gust
KPH
rain 1hr
cm
rain 24hr
cm
rain mn
cm
humidity
%
barometer
mb
20260503195021 13 0.0 0.0 0.00 0.00 0.00 54 1018.9
20260503194018 13 0.0 3.2 0.00 0.00 0.00 54 1018.9
20260503193034 13 0.0 3.2 0.00 0.00 0.00 54 1018.9
20260503192031 13 0.0 0.0 0.00 0.00 0.00 52 1018.8
20260503191027 14 0.0 0.0 0.00 0.00 0.00 51 1018.7
20260503190024 15 0.0 0.0 0.00 0.00 0.00 49 1018.6
20260503185020 15 0.0 0.0 0.00 0.00 0.00 49 1018.6
20260503184017 15 0.0 0.0 0.00 0.00 0.00 51 1018.5
20260503183034 15 0.0 0.0 0.00 0.00 0.00 52 1018.4
20260503182050 16 0.0 0.0 0.00 0.00 0.00 46 1018.4
20260503181027 17 0.0 0.0 0.00 0.00 0.00 43 1018.3
20260503180024 17 0.0 0.0 0.00 0.00 0.00 41 1018.3
20260503175019 18 0.0 0.0 0.00 0.00 0.00 40 1018.2
20260503174036 20 0.0 0.0 0.00 0.00 0.00 38 1018.2
20260503173031 20 0.0 0.0 0.00 0.00 0.00 37 1018.1
20260503172028 20 0.0 0.0 0.00 0.00 0.00 35 1018.1
20260503171044 21 139 0.0 3.2 0.00 0.00 0.00 35 1018.0
20260503131023 21 62 1.6 8.0 0.00 0.00 0.00 33 1019.8
20260503081020 16 136 4.8 16.1 0.00 0.00 0.00 47 1022.3
20260503072023 15 172 4.8 12.9 0.00 0.00 0.00 52 1022.2
20260503071020 14 181 6.4 16.1 0.00 0.00 0.00 54 1022.2
20260503055033 11 186 6.4 16.1 0.00 0.00 0.00 61 1022.0
20260503054029 11 169 4.8 12.9 0.00 0.00 0.00 60 1021.9
20260503053026 10 134 3.2 12.9 0.00 0.00 0.00 61 1021.9
20260503052023 10 123 1.6 8.0 0.00 0.00 0.00 60 1021.8
20260503051019 9 85 3.2 12.9 0.00 0.00 0.00 62 1021.8
20260503050016 9 89 4.8 16.1 0.00 0.00 0.00 63 1021.8
20260503045032 8 68 4.8 12.9 0.00 0.00 0.00 64 1021.6
20260503044029 8 73 4.8 12.9 0.00 0.00 0.00 65 1021.6
20260503043026 8 67 3.2 8.0 0.00 0.00 0.00 66 1021.5
20260503042022 8 52 1.6 8.0 0.00 0.00 0.00 66 1021.4
20260503041019 8 38 3.2 8.0 0.00 0.00 0.00 67 1021.3
20260503040035 8 77 1.6 8.0 0.00 0.00 0.00 67 1021.3
20260503035031 7 55 3.2 8.0 0.00 0.00 0.00 69 1021.2
20260503034048 6 98 0.0 3.2 0.00 0.00 0.00 73 1021.1
20260503033025 6 0.0 3.2 0.00 0.00 0.00 73 1021.0
20260503032021 6 35 3.2 12.9 0.00 0.00 0.00 74 1021.0
20260503031038 5 16 3.2 8.0 0.00 0.00 0.00 77 1020.8
20260503030034 3 0.0 0.0 0.00 0.00 0.00 78 1020.8
20260503025031 3 298 0.0 3.2 0.00 0.00 0.00 78 1020.8
20260503024027 3 0.0 3.2 0.00 0.00 0.00 77 1020.9
20260503023024 3 273 1.6 8.0 0.00 0.00 0.00 77 1020.7
20260503022020 4 254 1.6 3.2 0.00 0.00 0.00 77 1020.7
20260503021016 6 242 1.6 3.2 0.00 0.00 0.00 76 1020.6
20260503020033 7 26 3.2 3.2 0.00 0.00 0.00 74 1020.7
20260503015029 7 33 3.2 12.9 0.00 0.00 0.00 74 1020.6
20260503014026 6 23 3.2 8.0 0.00 0.00 0.00 77 1020.6
20260503013022 6 15 3.2 3.2 0.00 0.00 0.00 77 1020.5
20260503012019 5 13 0.0 3.2 0.00 0.00 0.00 78 1020.5
20260503011016 6 11 1.6 3.2 0.00 0.00 0.00 77 1020.5
20260503010053 5 112 0.0 3.2 0.00 0.00 0.00 78 1020.6
20260503005029 6 204 1.6 8.0 0.00 0.00 0.00 77 1020.6
20260503004025 6 140 0.0 3.2 0.00 0.00 0.00 77 1020.5
20260503003022 6 146 4.8 12.9 0.00 0.00 0.00 76 1020.7
20260503002018 8 104 1.6 8.0 0.00 0.00 0.00 69 1020.5
20260503001035 8 0.0 3.2 0.00 0.00 0.00 68 1020.3
20260503000031 9 0 0.0 3.2 0.00 0.00 0.00 67 1020.4
20260502235028 9 354 0.0 3.2 0.00 0.00 0.00 67 1020.3
20260502234025 9 359 0.0 3.2 0.00 0.00 0.00 67 1020.4
20260502233021 9 322 0.0 3.2 0.00 0.00 0.00 67 1020.4
20260502232017 8 1 0.0 3.2 0.00 0.00 0.00 70 1020.4
20260502231054 8 11 1.6 8.0 0.00 0.00 0.00 72 1020.3
20260502230031 8 348 1.6 3.2 0.00 0.00 0.00 75 1020.3
20260502225027 8 278 0.0 3.2 0.00 0.00 0.00 72 1020.4
20260502224024 8 0.0 0.0 0.00 0.00 0.00 70 1020.4
20260502223020 9 20 1.6 3.2 0.00 0.00 0.00 68 1020.3
20260502222017 9 19 0.0 3.2 0.00 0.00 0.00 68 1020.4
20260502221033 9 0.0 0.0 0.00 0.00 0.00 67 1020.4
20260502220030 11 0.0 0.0 0.00 0.00 0.00 60 1020.3
20260502215026 11 0.0 0.0 0.00 0.00 0.00 59 1020.2
20260502214024 11 0.0 0.0 0.00 0.00 0.00 58 1020.4
20260502213019 10 0.0 0.0 0.00 0.00 0.00 62 1020.3
20260502212036 10 0.0 0.0 0.00 0.00 0.00 60 1020.3
20260502211033 11 0.0 0.0 0.00 0.00 0.00 56 1020.4
20260502210029 11 0.0 0.0 0.00 0.00 0.00 57 1020.2
20260502205046 11 0.0 0.0 0.00 0.00 0.00 59 1020.4
20260502204023 11 0.0 0.0 0.00 0.00 0.00 58 1020.4
20260502203019 12 0.0 0.0 0.00 0.00 0.00 57 1020.3
20260502202016 12 0.0 0.0 0.00 0.00 0.00 53 1020.4
20260502201032 13 100 0.0 3.2 0.00 0.00 0.00 51 1020.4
20260502200029 13 55 1.6 3.2 0.00 0.00 0.00 50 1020.3